Creek Data

    Home     View Charts     View Raw Data     Messages

ID Distance Battery Voltage Battery Current Internal Temp Internal Humidity External Temp Solar Input rssi snr Time Stamp Record
67198 12.8 3.79 0 68 52 67 5.1 -71 7 02/24/2026 01:30 PM 50032
67197 12.8 3.77 0 68 52 66 5.1 -72 8 02/24/2026 01:15 PM 50031
67196 12.7 3.77 0 67 52 66 5.1 -71 7 02/24/2026 01:00 PM 50030
67195 12.8 4.07 0 68 51 65 5.1 -71 7 02/24/2026 12:45 PM 50029
67194 12.8 3.77 0 69 51 66 5.1 -71 8 02/24/2026 12:30 PM 50028
67193 12.8 3.77 0 70 49 67 5.1 -71 8 02/24/2026 12:15 PM 50027
67192 12.8 3.79 0 70 48 68 5.1 -72 8 02/24/2026 12:00 PM 50026
67191 12.8 4.06 0 68 49 65 5.1 -71 8 02/24/2026 11:45 AM 50025
67190 12.8 3.77 0 66 48 65 5.1 -71 7 02/24/2026 11:30 AM 50024
67189 12.8 3.93 0 65 48 63 5.1 -73 7 02/24/2026 11:15 AM 50023
67188 12.7 3.76 0 61 50 60 5.1 -71 7 02/24/2026 10:45 AM 50021
67187 12.7 3.87 0 60 50 58 5.1 -71 7 02/24/2026 10:30 AM 50020
67186 12.7 3.76 0 60 50 58 5.1 -71 7 02/24/2026 10:15 AM 50019
67185 12.7 3.84 0 59 50 58 5.1 -71 8 02/24/2026 10:00 AM 50018
67184 12.7 3.77 0 59 50 57 5.1 -71 8 02/24/2026 09:45 AM 50017
67183 12.7 4.00 25 58 50 57 4.5 -72 7 02/24/2026 09:30 AM 50016
67182 12.7 3.91 39 58 50 57 4.5 -72 7 02/24/2026 09:15 AM 50015
67181 12.7 3.93 38 57 50 57 4.5 -72 8 02/24/2026 09:00 AM 50014
67180 12.7 4.08 28 56 50 56 4.5 -72 8 02/24/2026 08:45 AM 50013
67179 12.7 3.78 17 55 50 55 4.5 -72 8 02/24/2026 08:30 AM 50012
67178 12.7 3.82 -9 55 51 55 4.5 -72 7 02/24/2026 08:15 AM 50011
67177 12.7 3.87 -5 54 51 55 4.5 -72 8 02/24/2026 08:00 AM 50010
67176 12.7 3.64 0 53 51 54 4.5 -73 8 02/24/2026 07:45 AM 50009
67175 12.7 3.59 -7 53 51 53 4.5 -73 8 02/24/2026 07:30 AM 50008
67174 12.7 3.58 -9 53 52 53 4.5 -72 9 02/24/2026 07:15 AM 50007